Weather History for KFLO - January, 2014

Change the Weather History Date:

Monday, January 27, 2014

  Actual Average Record
Temperature  
Mean Temperature 57 °F 46 °F  
Max Temperature 70 °F 56 °F 81 °F (1974)
Min Temperature 43 °F 35 °F 15 °F (1985)
Degree Days  
Heating Degree Days 8 19  
Month to date heating degree days 606 546  
Since 1 July heating degree days 1518 1525  
Cooling Degree Days 0 0  
Month to date cooling degree days 0 0  
Year to date cooling degree days 0 0  
Growing Degree Days 6 (Base 50)    
Moisture  
Dew Point 35 °F    
Average Humidity 47    
Maximum Humidity 62    
Minimum Humidity 31    
Precipitation  
Precipitation 0.00 in 0.10 in 1.19 in (1976)
Month to date precipitation 2.01 2.82  
Year to date precipitation 2.01 2.82  
Sea Level Pressure  
Sea Level Pressure 29.89 in    
Wind  
Wind Speed 8 mph (WSW)    
Max Wind Speed 17 mph    
Max Gust Speed 23 mph    
Visibility 10 miles    
Events      
T = Trace of Precipitation, MM = Missing Value Source: NWS Daily Summary

Daily Weather History Graph

Daily Weather History Graph

Search for Another Location

Airport or City:

Trip Planner

Search our weather history database for the weather conditions in past years. The results will help you decide how hot, cold, wet, or windy it might be!

Date:

Astronomy

Jan. 27, 2014 Rise Set
Actual Time 7:19 AM EST 5:44 PM EST
Civil Twilight 6:52 AM EST 6:10 PM EST
Nautical Twilight 6:22 AM EST 6:41 PM EST
Astronomical Twilight 5:53 AM EST 7:10 PM EST
Moon 3:57 AM EST (1/27) 2:30 PM EST (1/27)
Length of Visible Light 11h 17m
Length of Day
10h 24m
Waning Crescent, 15% of the Moon is Illuminated
Jan 27
Waning Crescent
Jan 30
New
Feb 6
First Quarter
Feb 14
Full
Feb 22
Last Quarter

Hourly Weather History & Observations

Time (EST) Temp. Windchill Dew Point Humidity Pressure Visibility Wind Dir Wind Speed Gust Speed Precip Events Conditions
12:53 AM 44.1 °F 40.1 °F 30.0 °F 58% 29.93 in 10.0 mi SSW 6.9 mph - N/A   Clear
1:53 AM 44.1 °F 40.8 °F 30.9 °F 60% 29.93 in 10.0 mi SSW 5.8 mph - N/A   Clear
2:53 AM 45.0 °F 40.6 °F 32.0 °F 60% 29.93 in 10.0 mi SW 8.1 mph - N/A   Clear
3:53 AM 46.9 °F - 32.0 °F 56% 29.92 in 10.0 mi SW 5.8 mph - N/A   Scattered Clouds
4:53 AM 46.9 °F - 32.0 °F 56% 29.91 in 10.0 mi SW 8.1 mph - N/A   Scattered Clouds
5:53 AM 46.9 °F - 32.0 °F 56% 29.91 in 10.0 mi SW 6.9 mph - N/A   Overcast
6:53 AM 46.0 °F 43.1 °F 32.0 °F 58% 29.90 in 10.0 mi SSW 5.8 mph - N/A   Mostly Cloudy
7:53 AM 46.0 °F 42.5 °F 33.1 °F 61% 29.90 in 10.0 mi SSW 6.9 mph - N/A   Clear
8:53 AM 51.1 °F - 34.0 °F 52% 29.91 in 10.0 mi WSW 8.1 mph - N/A   Clear
9:53 AM 54.0 °F - 34.0 °F 47% 29.93 in 10.0 mi WSW 11.5 mph 18.4 mph N/A   Clear
10:53 AM 59.0 °F - 36.0 °F 42% 29.92 in 10.0 mi West 10.4 mph 17.3 mph N/A   Clear
11:53 AM 63.0 °F - 37.9 °F 40% 29.88 in 10.0 mi WSW 12.7 mph - N/A   Clear
12:53 PM 66.9 °F - 37.0 °F 33% 29.85 in 10.0 mi WSW 12.7 mph 21.9 mph N/A   Clear
1:53 PM 68.0 °F - 37.0 °F 32% 29.81 in 10.0 mi SW 9.2 mph - N/A   Clear
2:53 PM 69.1 °F - 37.9 °F 32% 29.79 in 10.0 mi SSW 10.4 mph 20.7 mph N/A   Clear
3:53 PM 68.0 °F - 39.9 °F 36% 29.80 in 10.0 mi SW 16.1 mph 21.9 mph N/A   Scattered Clouds
4:53 PM 66.9 °F - 39.9 °F 37% 29.81 in 10.0 mi SW 10.4 mph - N/A   Clear
5:53 PM 62.1 °F - 39.0 °F 43% 29.84 in 10.0 mi WSW 6.9 mph - N/A   Clear
6:53 PM 62.1 °F - 37.9 °F 41% 29.87 in 10.0 mi WNW 6.9 mph - N/A   Clear
7:53 PM 61.0 °F - 37.9 °F 42% 29.91 in 10.0 mi West 9.2 mph - N/A   Clear
8:53 PM 57.9 °F - 37.9 °F 47% 29.92 in 10.0 mi WNW 3.5 mph - N/A   Clear
9:53 PM 55.0 °F - 37.9 °F 53% 29.94 in 10.0 mi West 4.6 mph - N/A   Clear
10:53 PM 51.1 °F - 37.0 °F 59% 29.96 in 10.0 mi NW 4.6 mph - N/A   Clear
11:53 PM 51.1 °F - 35.1 °F 54% 29.99 in 10.0 mi North 10.4 mph - N/A   Clear